DELTA 1 R/B, 2436

Orbit data source: Space-Track

DELTA 1 R/B, 2436 is space debris in SSO originally from a launch on Sun, 02 Oct 1966 UTC launched from the Air Force Western Test Range (AFWTR). Debris objects in space refer to the collection of defunct objects orbiting the Earth. Examples of debris include non-operational satellites, rocket bodies, and fragments generated from explosions, collisions, or faulty payload assembly.

Loading next visibility...
DELTA 1 R/B details
Identifier
2436, 1966-087B
Orbit
SSO
Last TLE update9 hours ago
Origin
Flag of USGSFC (US)
ManufacturerABL
MissionSpacecraft
Bus & MotorALTAIR, Unknown motor
Mass33 kg wet, 33 kg dry
Launch date (UTC)
1966-10-02 (58 years ago)
Launch vehicleUnknown
Launch site
Air Force Western Test Range (AFWTR)
Object type
Payload
Rocket body
Debris
Shape & HBRCyl, 1.5 m
Radar Cross Section0.687 m², Medium (>0.1 m² and < 1m²)

Expand to show TLE details & history

TLE from 9 hours ago
0 DELTA 1 R/B
1 02436U 66087B   24356.88692550  .00000008  00000-0  28433-3 0  9996
2 02436 100.9651 334.3263 0065730  35.6548 324.8895 12.57645803671931
Epoch: 2024-12-21T21:17Z
Definitive object data (Epoch: 2024-12-21T21:17:10.363Z)
Latitude0.00004°
Longitude-75.89853°
Altitude1,393.397 km
Speed7.182 km/s
True Right ascension22h 17m 18s
True Declination0° 00' 00"
Sunlit
Object was in daylight at TLE epoch
Visualization TLE readout
Latitude-73.78046°
Longitude-34.03216°
Altitude1,479.139 km
Speed7.115 km/s
Apparent Right ascension19h 16m 33s
Apparent Declination-68° 49' 23"
Sunlit
Object is in daylight
Visualization observer readout
Local Sidereal Time05:29:57
Azimuth197.691° SSW
Elevation-57.776°
Doppler factor1
Orbital elements
Apogee altitude1,481.493 km
Perigee altitude1,378.845 km
Semi-major axis7,808.306 km
Eccentricity0.006573
Inclination100.9651°
RAAN334.3263°
Arg. of periapsis35.6548°
True anomaly324.45336°
Mean anomaly324.8895°
Eccentric anomaly324.67172°
Mean motion3.14563 °/min
BSTAR0.00028433
Orbital period114.44 mins
Loading maneuver chart data...
Loading historical data...
Loading historical data...
Loading historical data...
Loading historical data...
Loading historical data...
Loading historical data...
Loading historical data...

DELTA 1 R/B Visibility forecast

Observer location: undefined°, undefined

Span
Click to sort rows by Start time (UTC) header in descending order
Start Az.
Max El. time (UTC)
Max El. Az.
Max El.
End time (UTC)
End Az.
15 mins2024-12-22 11:16:12.286Z24.308° NE2024-12-22 11:23:12.286Z97.693° ESE41.745°2024-12-22 11:31:12.286Z183.264° SSW
11 mins2024-12-22 13:10:12.286Z349.732° N2024-12-22 13:15:12.286Z303.097° NW26.612°2024-12-22 13:21:12.286Z249.705° W
7 mins2024-12-22 20:25:12.286Z74.766° E2024-12-22 20:28:12.286Z50.54° ENE15.011°2024-12-22 20:32:12.286Z19.2° NNE
14 mins2024-12-22 22:13:12.286Z150.231° SSE2024-12-22 22:19:12.286Z83.563° E43.58°2024-12-22 22:27:12.286Z347.815° N
10 mins2024-12-23 00:08:12.286Z227.87° WSW2024-12-23 00:12:12.286Z262.928° W20.587°2024-12-23 00:18:12.286Z313.817° NW
|